• în România
  • Lista ţărilor
  • Pe 7 zile
  • Temperatura apei
  • Hartă satelitară
  • Meteo pe hartă
  • Widget-uri
  • user-avatar
    Intrare

    Meteo pe oră la Zadnee

    Astăzi, 20 Iulie, Vineri

    Timp Temperatura Precipitaţii Vânt Presiune Umiditate
    00:00 +19°C° 0 mm 3 m/s 742 mmHg 92%
    01:00 +19°C° 0 mm 3 m/s 742 mmHg 92%
    02:00 +19°C° 0 mm 3 m/s 742 mmHg 93%
    03:00 +19°C° 0,1 mm 3 m/s 742 mmHg 93%
    04:00 +19°C° 0,1 mm 3 m/s 742 mmHg 94%
    05:00 +19°C° 0,1 mm 3 m/s 741 mmHg 94%
    06:00 +19°C° 0,1 mm 4 m/s 741 mmHg 93%
    07:00 +19°C° 0,1 mm 4 m/s 742 mmHg 92%
    08:00 +20°C° 0,1 mm 4 m/s 742 mmHg 91%
    09:00 +20°C° 0,1 mm 4 m/s 742 mmHg 90%
    10:00 +20°C° 0,1 mm 4 m/s 742 mmHg 89%
    11:00 +20°C° 0,1 mm 4 m/s 742 mmHg 88%
    12:00 +21°C° 0,1 mm 4 m/s 742 mmHg 83%
    13:00 +23°C° 0,1 mm 4 m/s 742 mmHg 77%
    14:00 +25°C° 0,1 mm 4 m/s 742 mmHg 72%
    15:00 +25°C° 0,6 mm 4 m/s 741 mmHg 74%
    16:00 +25°C° 0,6 mm 4 m/s 741 mmHg 77%
    17:00 +25°C° 0,6 mm 4 m/s 741 mmHg 79%
    18:00 +23°C° 0,9 mm 4 m/s 741 mmHg 84%
    19:00 +22°C° 0,9 mm 4 m/s 741 mmHg 88%
    20:00 +21°C° 0,9 mm 4 m/s 741 mmHg 92%
    21:00 +20°C° 0,1 mm 4 m/s 741 mmHg 93%
    22:00 +20°C° 0,1 mm 4 m/s 741 mmHg 93%
    23:00 +20°C° 0,1 mm 4 m/s 741 mmHg 94%

    Mâine, 21 Iulie, Sâmbătă

    Timp Temperatura Precipitaţii Vânt Presiune Umiditate
    00:00 +19°C° 0,2 mm 4 m/s 741 mmHg 95%
    01:00 +19°C° 0,2 mm 4 m/s 741 mmHg 96%
    02:00 +19°C° 0,2 mm 4 m/s 742 mmHg 96%
    03:00 +19°C° 0 mm 4 m/s 742 mmHg 96%
    04:00 +19°C° 0 mm 4 m/s 742 mmHg 96%
    05:00 +19°C° 0 mm 4 m/s 742 mmHg 95%
    06:00 +20°C° 0 mm 4 m/s 742 mmHg 94%
    07:00 +20°C° 0 mm 4 m/s 742 mmHg 92%
    08:00 +20°C° 0 mm 4 m/s 742 mmHg 90%
    09:00 +21°C° 0 mm 4 m/s 742 mmHg 85%
    10:00 +23°C° 0 mm 4 m/s 742 mmHg 80%
    11:00 +25°C° 0 mm 4 m/s 743 mmHg 75%
    12:00 +25°C° 0,2 mm 4 m/s 742 mmHg 72%
    13:00 +26°C° 0,2 mm 4 m/s 742 mmHg 70%
    14:00 +27°C° 0,2 mm 4 m/s 742 mmHg 68%
    15:00 +27°C° 0,2 mm 4 m/s 742 mmHg 68%
    16:00 +27°C° 0,2 mm 4 m/s 742 mmHg 69%
    17:00 +26°C° 0,2 mm 4 m/s 742 mmHg 69%
    18:00 +25°C° 0 mm 4 m/s 742 mmHg 75%
    19:00 +24°C° 0 mm 3 m/s 742 mmHg 80%
    20:00 +21°C° 0 mm 3 m/s 742 mmHg 85%
    21:00 +20°C° 0 mm 3 m/s 743 mmHg 88%
    22:00 +19°C° 0 mm 3 m/s 743 mmHg 91%
    23:00 +19°C° 0 mm 3 m/s 743 mmHg 94%

    Poimâine, 22 Iulie, Duminică

    Timp Temperatura Precipitaţii Vânt Presiune Umiditate
    00:00 +18°C° 0 mm 3 m/s 743 mmHg 95%
    01:00 +18°C° 0 mm 3 m/s 743 mmHg 96%
    02:00 +17°C° 0 mm 2 m/s 743 mmHg 97%
    03:00 +17°C° 0 mm 3 m/s 743 mmHg 95%
    04:00 +18°C° 0 mm 3 m/s 743 mmHg 94%
    05:00 +18°C° 0 mm 3 m/s 743 mmHg 92%
    06:00 +18°C° 0 mm 3 m/s 743 mmHg 90%
    07:00 +19°C° 0 mm 3 m/s 743 mmHg 88%
    08:00 +19°C° 0 mm 3 m/s 743 mmHg 86%
    09:00 +20°C° 0 mm 3 m/s 743 mmHg 86%
    10:00 +20°C° 0 mm 4 m/s 743 mmHg 85%
    11:00 +20°C° 0 mm 4 m/s 743 mmHg 85%
    12:00 +20°C° 0 mm 4 m/s 743 mmHg 85%
    13:00 +20°C° 0 mm 4 m/s 743 mmHg 86%
    14:00 +20°C° 0 mm 4 m/s 743 mmHg 86%
    15:00 +21°C° 0,1 mm 4 m/s 743 mmHg 85%
    16:00 +21°C° 0,1 mm 4 m/s 743 mmHg 85%
    17:00 +21°C° 0,1 mm 4 m/s 743 mmHg 85%
    18:00 +21°C° 0,1 mm 3 m/s 743 mmHg 87%
    19:00 +20°C° 0,1 mm 3 m/s 743 mmHg 90%
    20:00 +19°C° 0,1 mm 3 m/s 743 mmHg 92%
    21:00 +19°C° 0,1 mm 3 m/s 743 mmHg 93%
    22:00 +19°C° 0,1 mm 3 m/s 743 mmHg 94%
    23:00 +19°C° 0,1 mm 3 m/s 743 mmHg 95%

    23 Iulie, Luni

    Timp Temperatura Precipitaţii Vânt Presiune Umiditate
    00:00 +19°C° 0,1 mm 3 m/s 743 mmHg 96%
    01:00 +18°C° 0,1 mm 3 m/s 743 mmHg 96%
    02:00 +18°C° 0,1 mm 3 m/s 743 mmHg 97%
    03:00 +18°C° 0 mm 3 m/s 743 mmHg 96%
    04:00 +18°C° 0 mm 3 m/s 743 mmHg 95%
    05:00 +18°C° 0 mm 3 m/s 743 mmHg 95%
    06:00 +18°C° 0,1 mm 4 m/s 743 mmHg 94%
    07:00 +18°C° 0,1 mm 4 m/s 743 mmHg 94%
    08:00 +18°C° 0,1 mm 4 m/s 743 mmHg 93%
    09:00 +19°C° 0,1 mm 4 m/s 743 mmHg 92%
    10:00 +19°C° 0,1 mm 4 m/s 743 mmHg 91%
    11:00 +19°C° 0,1 mm 4 m/s 743 mmHg 89%
    12:00 +20°C° 0,1 mm 4 m/s 743 mmHg 88%
    13:00 +20°C° 0,1 mm 4 m/s 743 mmHg 88%
    14:00 +20°C° 0,1 mm 4 m/s 743 mmHg 87%
    15:00 +20°C° 0 mm 3 m/s 743 mmHg 88%
    16:00 +20°C° 0 mm 3 m/s 743 mmHg 89%
    17:00 +20°C° 0 mm 3 m/s 743 mmHg 90%
    18:00 +20°C° 0,1 mm 3 m/s 743 mmHg 92%
    19:00 +20°C° 0,1 mm 3 m/s 743 mmHg 93%
    20:00 +19°C° 0,1 mm 2 m/s 743 mmHg 94%
    21:00 +19°C° 0,1 mm 3 m/s 743 mmHg 94%
    22:00 +19°C° 0,1 mm 3 m/s 743 mmHg 94%
    23:00 +19°C° 0,1 mm 3 m/s 743 mmHg 94%

    24 Iulie, Marţi

    Timp Temperatura Precipitaţii Vânt Presiune Umiditate
    00:00 +19°C° 0,1 mm 3 m/s 743 mmHg 95%
    01:00 +19°C° 0,1 mm 3 m/s 743 mmHg 95%
    02:00 +19°C° 0,1 mm 3 m/s 743 mmHg 96%
    03:00 +18°C° 0 mm 3 m/s 743 mmHg 95%
    04:00 +18°C° 0 mm 3 m/s 743 mmHg 95%
    05:00 +18°C° 0 mm 3 m/s 743 mmHg 95%
    06:00 +19°C° 0 mm 3 m/s 743 mmHg 93%
    07:00 +19°C° 0 mm 3 m/s 744 mmHg 91%
    08:00 +20°C° 0 mm 3 m/s 744 mmHg 89%
    09:00 +20°C° 0 mm 3 m/s 744 mmHg 87%
    10:00 +21°C° 0 mm 3 m/s 744 mmHg 86%
    11:00 +21°C° 0 mm 3 m/s 745 mmHg 85%
    12:00 +21°C° 0 mm 3 m/s 745 mmHg 84%
    13:00 +22°C° 0 mm 3 m/s 745 mmHg 83%
    14:00 +22°C° 0 mm 3 m/s 745 mmHg 83%
    15:00 +22°C° 0 mm 3 m/s 745 mmHg 81%
    16:00 +24°C° 0 mm 3 m/s 745 mmHg 79%
    17:00 +24°C° 0 mm 3 m/s 745 mmHg 77%
    18:00 +24°C° 0 mm 3 m/s 745 mmHg 82%
    19:00 +23°C° 0 mm 2 m/s 745 mmHg 86%
    20:00 +21°C° 0 mm 2 m/s 745 mmHg 91%
    21:00 +21°C° 0 mm 2 m/s 745 mmHg 92%
    22:00 +20°C° 0 mm 2 m/s 746 mmHg 93%
    23:00 +20°C° 0 mm 2 m/s 746 mmHg 95%

    25 Iulie, Miercuri

    Timp Temperatura Precipitaţii Vânt Presiune Umiditate
    00:00 +19°C° 0 mm 2 m/s 746 mmHg 96%
    01:00 +19°C° 0 mm 2 m/s 746 mmHg 97%
    02:00 +19°C° 0 mm 2 m/s 746 mmHg 97%
    03:00 +19°C° 0 mm 2 m/s 746 mmHg 97%
    04:00 +19°C° 0 mm 2 m/s 747 mmHg 96%
    05:00 +19°C° 0 mm 2 m/s 747 mmHg 96%
    06:00 +21°C° 0 mm 2 m/s 747 mmHg 90%
    07:00 +23°C° 0 mm 2 m/s 747 mmHg 84%
    08:00 +25°C° 0 mm 2 m/s 747 mmHg 78%
    09:00 +26°C° 0 mm 3 m/s 747 mmHg 73%
    10:00 +27°C° 0 mm 3 m/s 747 mmHg 67%
    11:00 +29°C° 0 mm 3 m/s 747 mmHg 62%
    12:00 +28°C° 0,9 mm 3 m/s 747 mmHg 66%
    13:00 +28°C° 0,9 mm 3 m/s 747 mmHg 70%
    14:00 +28°C° 0,9 mm 3 m/s 747 mmHg 75%
    15:00 +27°C° 0,5 mm 3 m/s 747 mmHg 74%
    16:00 +27°C° 0,5 mm 3 m/s 747 mmHg 74%
    17:00 +27°C° 0,5 mm 3 m/s 747 mmHg 73%
    18:00 +26°C° 0,2 mm 2 m/s 748 mmHg 78%
    19:00 +24°C° 0,2 mm 2 m/s 748 mmHg 83%
    20:00 +23°C° 0,2 mm 2 m/s 748 mmHg 88%
    21:00 +21°C° 0 mm 2 m/s 748 mmHg 89%
    22:00 +20°C° 0 mm 2 m/s 748 mmHg 90%
    23:00 +19°C° 0 mm 2 m/s 748 mmHg 91%
    Arată mai mult